Home > Weather > Leimen > Past weeks

Flag for Germany Weather for the Past 2 Weeks in Leimen, Baden-Württemberg, Germany

Now
45 °F

Light rain. Mostly cloudy.


Feels Like: 41 °F
Forecast: 40 / 47 °F
Wind: 7 mph from Southeast

Location: Mannheim City

Current Time: Feb 13, 2016 at 6:37:20 PM

Latest Report: Feb 13, 2016 at 5:50 PM


Visibility: N/A

Pressure: 29.09 "Hg

Humidity: 81%

Dew point: 39 °F

Location of LeimenLocation

Historic Weather in Leimen — Graph

°F

Leimen Temperature Yesterday

Maximum temperature yesterday: 46 °F (at 2:50 PM)
Minimum temperature yesterday: 34 °F (at 5:50 AM)
Average temperature yesterday: 40 °F

High & Low Weather Summary for the Past Weeks

 TemperatureHumidityPressure
High57 °F (Feb 1, 2:50 AM)100% (Jan 31, 8:50 AM)30.39 "Hg (Jan 31, 8:50 AM)
Low34 °F (Feb 12, 5:50 AM)51% (Feb 6, 3:50 PM)29.09 "Hg (Feb 9, 4:20 PM)
Average46 °F79%29.85 "Hg
* Reported Jan 29 5:20 PM — Feb 13 5:20 PM, Leimen, Weather by CustomWeather, © 2016

Note: Actual official high and low records may vary slightly from our data, if they occured in-between our weather recording intervals... More about our weather records

Advertising

Leimen Weather History for the Previous 24 Hours

 ConditionsComfort  
Time TempWeatherWind HumidityBarometerVisibility
5:20 PM
Sat, Feb 13
45 °FLight rain. Partly sunny.7 mph87%29.12 "HgN/A
4:50 PM45 °FLight rain. Mostly cloudy.8 mph87%29.12 "HgN/A
4:20 PM43 °FLight rain. Partly sunny.7 mph93%29.15 "HgN/A
3:50 PM43 °FLight rain. Partly sunny.7 mph87%29.15 "HgN/A
3:20 PM43 °FLight rain. Overcast.6 mph87%29.18 "HgN/A
2:50 PM43 °FOvercast.6 mph87%29.21 "HgN/A
2:20 PM43 °FOvercast.8 mph87%29.21 "HgN/A
1:50 PM41 °FOvercast.5 mph87%29.24 "HgN/A
1:20 PM41 °FOvercast.6 mph87%29.24 "HgN/A
12:50 PM41 °FLow clouds.7 mph87%29.27 "HgN/A
12:20 PM41 °FOvercast.6 mph87%29.30 "HgN/A
11:50 AM39 °FOvercast.6 mph93%29.30 "HgN/A
11:20 AM39 °FLow clouds.6 mph93%29.30 "HgN/A
10:50 AM39 °FLow clouds.8 mph93%29.33 "HgN/A
10:20 AM39 °FMore clouds than sun.5 mph93%29.33 "HgN/A
9:50 AM39 °FPartly sunny.6 mph87%29.33 "HgN/A
9:20 AM37 °FLow clouds.6 mph93%29.36 "HgN/A
8:50 AM37 °FMore clouds than sun.5 mph93%29.36 "HgN/A
8:20 AM36 °FBroken clouds.3 mph87%29.36 "HgN/A
7:50 AM36 °FOvercast.3 mph87%29.36 "HgN/A
7:20 AM36 °FMostly cloudy.3 mph87%29.36 "HgN/A
8:50 PM
Fri, Feb 12
39 °FPassing clouds.5 mph70%29.36 "HgN/A
8:20 PM39 °FClear.2 mph70%29.39 "Hg10 mi
7:50 PM39 °FClear.1 mph75%29.39 "Hg10 mi
7:20 PM41 °FClear.5 mph66%29.39 "Hg10 mi
6:50 PM43 °FPassing clouds.7 mph61%29.39 "HgN/A
6:20 PM43 °FClear.7 mph61%29.39 "Hg10 mi
Weather by CustomWeather, © 2016

See weather overviewHow to use our weather pages